This is the latest recevied weather packets stored in our database for station/object KE0YJJ-14. If no packets are shown the sender has not sent any weather packets the latest 10 day(s).
| Time | Temp. | Humidity | Pressure | Rain* | Wind** | Luminosity | Snow |
|---|---|---|---|---|---|---|---|
| 1777985349 | 4.44° C | 52% | - | 0 mm | - | - | - |
| 1777985046 | 4.44° C | 53% | - | 0 mm | - | - | - |
| 1777984742 | 4.44° C | 53% | - | 0 mm | - | - | - |
| 1777984439 | 4.44° C | 54% | - | 0 mm | - | - | - |
| 1777984134 | 4.44° C | 54% | - | 0 mm | - | - | - |
| 1777983832 | 3.89° C | 55% | - | 0 mm | - | - | - |
| 1777983529 | 3.89° C | 57% | - | 0 mm | - | - | - |
| 1777983226 | 3.89° C | 57% | - | 0 mm | - | - | - |
| 1777982922 | 3.33° C | 59% | - | 0 mm | - | - | - |
| 1777982618 | 3.33° C | 59% | - | 0 mm | - | - | - |
| 1777982317 | 2.78° C | 59% | - | 0 mm | - | - | - |
| 1777982014 | 2.78° C | 60% | - | 0 mm | - | - | - |
| 1777981712 | 2.78° C | 61% | - | 0 mm | - | - | - |
| 1777981408 | 2.78° C | 63% | - | 0 mm | - | - | - |
| 1777981105 | 2.22° C | 66% | - | 0 mm | - | - | - |
| 1777980801 | 2.22° C | 68% | - | 0 mm | - | - | - |
| 1777980497 | 1.67° C | 72% | - | 0 mm | - | - | - |
| 1777980195 | 1.67° C | 74% | - | 0 mm | - | - | - |
| 1777979890 | 1.67° C | 73% | - | 0 mm | - | - | - |
| 1777979586 | 1.11° C | 73% | - | 0 mm | - | - | - |
| 1777979282 | 1.11° C | 75% | - | 0 mm | - | - | - |
| 1777978980 | 1.11° C | 76% | - | 0 mm | - | - | - |
| 1777978676 | 1.11° C | 77% | - | 0 mm | - | - | - |
| 1777978372 | 1.11° C | 77% | - | 0 mm | - | - | - |
| 1777978068 | 0.56° C | 76% | - | 0 mm | - | - | - |
* Rain latest hour (hover to see other rain measurements)
** Current wind speed in m/s (hover to see current wind gust speed)